Location: Asni�res
(49.1337°N, 2.3555°E)
Time: 20:22:26
(UTC+00:00)

Cosmos 2227 - Pass Details

Date: 01 June 2022
Orbit: 833 x 863 km, 71.0° (Epoch: 25 June)

Event Time Altitude Azimuth Distance (km) Brightness Sun altitude
Rises 21:20:13 0° 323° (NW) 3,448 9.6 -11.4°
Reaches altitude 10° 21:23:01 10° 312° (NW) 2,509 8.1 -11.7°
Maximum altitude 21:27:46 27° 257° (WSW) 1,588 5.9 -12.1°
Drops below altitude 10° 21:32:31 10° 201° (SSW) 2,496 6.3 -12.6°
Enters shadow 21:33:47 - 195° (SSW) 2,910 6.6 -12.7°
